This is the latest recevied weather packets stored in our database for station/object N9BSW. If no packets are shown the sender has not sent any weather packets the latest 1 day(s).
| Time | Temp. | Humidity | Pressure | Rain* | Wind** | Luminosity | Snow |
|---|---|---|---|---|---|---|---|
| 1777989500 | 15.56° C | 90% | 1008.1 hPa | 0 mm | 0 m/s | 168 W/m² | - |
| 1777989196 | 15.56° C | 89% | 1008.2 hPa | 0 mm | 0.45 m/s, 177° | 181 W/m² | - |
| 1777988892 | 15.56° C | 89% | 1008.3 hPa | 0 mm | 0.45 m/s, 234° | 167 W/m² | - |
| 1777988589 | 15.56° C | 89% | 1008.4 hPa | 0 mm | 0 m/s | 163 W/m² | - |
| 1777988286 | 15.56° C | 90% | 1008.1 hPa | 0 mm | 0 m/s | 165 W/m² | - |
| 1777987983 | 15.56° C | 90% | 1008 hPa | 0 mm | 0 m/s | 131 W/m² | - |
| 1777987678 | 15.56° C | 91% | 1008.2 hPa | 0 mm | 0 m/s | 121 W/m² | - |
| 1777987375 | 15.56° C | 91% | 1008.3 hPa | 0 mm | 0.45 m/s, 169° | 153 W/m² | - |
| 1777987073 | 15.56° C | 90% | 1008.1 hPa | 0 mm | 0 m/s | 150 W/m² | - |
| 1777986770 | 15.56° C | 91% | 1008.1 hPa | 0 mm | 0.45 m/s, 170° | 140 W/m² | - |
| 1777986467 | 15.56° C | 91% | 1008.2 hPa | 0 mm | 0.45 m/s, 169° | 149 W/m² | - |
| 1777986166 | 15.56° C | 91% | 1008.1 hPa | 0 mm | 0 m/s | 167 W/m² | - |
| 1777985862 | 15.56° C | 92% | 1008 hPa | 0 mm | 0 m/s | 139 W/m² | - |
| 1777985560 | 15° C | 93% | 1007.9 hPa | 0 mm | 0 m/s | 159 W/m² | - |
| 1777985256 | 15° C | 93% | 1007.9 hPa | 0 mm | 0 m/s | 146 W/m² | - |
| 1777984953 | 15° C | 93% | 1007.8 hPa | 0 mm | 0 m/s | 154 W/m² | - |
| 1777984649 | 14.44° C | 93% | 1007.6 hPa | 0 mm | 0 m/s | 157 W/m² | - |
| 1777984346 | 14.44° C | 93% | 1007.6 hPa | 0 mm | 0 m/s | 115 W/m² | - |
| 1777984042 | 14.44° C | 93% | 1007.8 hPa | 0 mm | 0 m/s | 86 W/m² | - |
| 1777983740 | 14.44° C | 94% | 1007.6 hPa | 0 mm | 0 m/s | 67 W/m² | - |
| 1777983436 | 14.44° C | 94% | 1007.7 hPa | 0 mm | 0 m/s | 89 W/m² | - |
| 1777983133 | 14.44° C | 94% | 1007.6 hPa | 0 mm | 0.45 m/s, 130° | 127 W/m² | - |
| 1777982829 | 14.44° C | 95% | 1007.5 hPa | 0 mm | 0 m/s | 101 W/m² | - |
| 1777982526 | 14.44° C | 95% | 1007.4 hPa | 0 mm | 0 m/s | 91 W/m² | - |
| 1777982224 | 13.89° C | 95% | 1007.3 hPa | 0 mm | 0 m/s | 81 W/m² | - |
* Rain latest hour (hover to see other rain measurements)
** Current wind speed in m/s (hover to see current wind gust speed)